To NAV CANADA Home Page Login to a new session Search on AWWS site Feedback and Comments Disclaimer Vers la page française équivalente Tips FAQ What's new on the site To the Forecasts and Observations / NOTAM section To "File a Flight Plan" website Publications and other links Update of the User's profile FIC Telephone Numbers My Weather Data Folder Route Weather Data Regional Weather Data Local Weather Data To the Forecasts and Observations / NOTAM section
Request Generated 05/04/2016 at 17:26:05 UTC . Weather information available at that time is displayed.

METAR/TAF

CHESTERFIELD INLET/NU    

METAR CYCS 041700Z 30016KT 15SM FEW090 M09/M13 A2982 RMK AC1 AC TR
SLP101=
METAR CYCS 041600Z 29016KT 15SM FEW090 M10/M13 A2982 RMK AC1 AC TR
SLP100=
METAR CYCS 041500Z 30016KT 15SM FEW090 M11/M14 A2983 RMK AC1 AC TR
SLP105=

CYCS - No TAF is issued for this station

Your time UTC time
Weather data provided by Environment Canada and NAV CANADA